www.pogodaiklimat.ru

Погода и климат >> Архив погоды >> Россия >> Коми >> Койгородок


АРХИВ ПОГОДЫ в Койгородке

Время (UTC), дата Ветер
(напр.,м/с)
 
Видим.   Явления Облачность Т
(С)
Тd
(С)
f
(%)
Тe
(С)
Тes
(С)
Комфортность P
(гПа)
Po
(гПа)
Тmin
(С)
Tmax
(С)
R
(мм)
R24
(мм)
S
(см)
03 17.08 штиль 0 12 км 10/0
[Ac trans Ci fib]
+8.9 +8.6 98 +8 +9 1018.7 1003.3 +7.0
06 17.08 С 1 20 км 10/0
[Ac trans Ci fib]
+17.3 +12.8 75 +18 +23 1019.0 1004.2
09 17.08 СЗ 1 20 км 4/3 600 м
[Cu med, cong Ci fib]
+21.1 +10.0 49 +23 +30 комфорт 1018.9 1004.2
12 17.08 СЗ 1 20 км 6/3 600 м
[Cu med, cong Ci fib]
+22.3 +9.0 43 +24 +28 комфорт 1018.6 1004.0
15 17.08 штиль 0 20 км 8/3 1000 м
[Cu med, cong Ci fib]
+21.2 +12.6 58 +23 +24 комфорт 1019.1 1004.5 +22.5
18 17.08 штиль 0 22 км 6/0
[Ci fib]
+10.7 +10.3 97 +10 +10 1020.3 1005.1
21 17.08 штиль 0 19 км 8/0
[Ci fib]
+8.2 +8.0 99 +7 +7 1020.9 1005.5
00 18.08 штиль 0 21 км 8/0
[Ci fib]
+6.4 +6.0 97 +5 +5 1022.2 1006.7
03 18.08 штиль 0 20 км 8/0
[Ci fib]
+7.9 +7.4 97 +7 +8 1022.3 1006.9 +4.1
06 18.08 штиль 0 20 км 9/0
[Cs]
+17.0 +12.1 73 +17 +25 1022.2 1007.3
09 18.08 В 3 20 км 10/1 600 м
[Sc As trans]
+20.5 +9.0 48 +22 +25 комфорт 1021.8 1007.1
12 18.08 В 2 20 км 10/0
[Ac As]
+20.6 +10.5 52 +23 +25 комфорт 1021.8 1007.1
15 18.08 Ю 1 20 км 10/0
[Ac As]
+19.1 +13.9 72 +21 +22 комфорт 1022.2 1007.4 +21.7
18 18.08 штиль 0 30 км 10/0
[As op]
+15.2 +13.4 89 +15 +15 1022.5 1007.5
21 18.08 В 1 30 км 10/0
[As op]
+15.8 +12.0 78 +17 +17 1021.5 1006.6
00 19.08 В 1 30 км 10/0
[As op]
+16.3 +13.6 84 +17 +17 1020.9 1006.0
03 19.08 ЮВ 1 20 км в посл. час дождь 10/8 360 м
[Sc As op]
+15.4 +14.9 97 +16 +16 1020.4 1005.5 +14.6 1
06 19.08 ЮВ 3 20 км {дождь} 10/10 400 м
[Sc]
+16.8 +15.1 90 +17 +17 1020.1 1005.3
09 19.08 ЮВ 2 8000 м слаб. дождь 10/9 240 м
[Frnb As op]
+16.5 +15.9 96 +17 +17 1020.0 1005.2
12 19.08 ЮВ 1 8000 м слаб. дождь 10/8 450 м
[Sc As op]
+17.3 +13.6 79 +18 +19 1019.2 1004.4
15 19.08 ЮВ 2 20 км {дождь} 10/9 240 м
[Frnb As op]
+17.5 +17.0 97 +18 +18 1018.5 1003.7 +17.5 2
18 19.08 ЮВ 1 8000 м в посл. час дождь 10/10 210 м
[Frnb]
+17.3 +16.9 97 +18 +18 1017.8 1003.0
21 19.08 ЮВ 1 8000 м дымка {дождь} 10/10 180 м
[Frnb]
+17.5 +17.2 98 +19 +19 1016.4 1001.6
00 20.08 штиль 0 2100 м в посл. час ливневой дождь 10/10 180 м
[Cb calv]
+17.1 +16.9 99 +17 +17 1015.5 1000.7
03 20.08 штиль 0 1500 м дымка 10/10 150 м
[St]
+17.5 +17.5 100 +17 +17 1016.0 1001.2 +17.0 0.7
06 20.08 СЗ 1 18 км 10/10 450 м
[Cb calv]
+19.4 +18.3 93 +23 +23 комфорт 1016.5 1001.8
09 20.08 СЗ 2 20 км 9/8 570 м
[Cb calv Ac trans]
+20.6 +18.9 90 +25 +27 комфорт 1017.1 1002.5
12 20.08 СЗ 1 20 км в посл. час ливневой дождь 9/5 600 м
[Cb calv Ac trans]
+20.1 +19.2 95 +25 +26 комфорт 1018.2 1003.6
15 20.08 СЗ 1 20 км 8/4 600 м
[Cb calv Ac trans]
+20.0 +17.9 88 +24 +24 комфорт 1019.2 1004.5 +21.4 4
18 20.08 штиль 0 30 км 9/9 450 м
[Cb calv]
+17.9 +17.4 97 +18 +18 1020.2 1005.4
21 20.08 СВ 1 17 км 8/0
[Ac trans Ci fib]
+16.2 +16.0 99 +17 +17 1020.7 1005.8
00 21.08 штиль 0 9000 м дымка 10/10 180 м
[St]
+15.8 +15.6 99 +16 +16 1020.7 1005.8
03 21.08 штиль 0 800 м туман ?/? +16.3 +16.1 99 +16 +16 1021.0 1006.1 +14.6
06 21.08 штиль 0 7000 м дымка {туман} 10/10 240 м
[St]
+17.8 +17.3 97 +18 +18 1021.4 1006.6
09 21.08 ЮВ 2 20 км 9/4 300 м
[Cb calv Ac trans]
+21.4 +17.9 80 +26 +28 душно 1020.9 1006.3
12 21.08 ЮЗ 2 20 км 8/4 600 м
[Cb calv Ac trans]
+22.4 +17.4 73 +27 +29 душно 1019.9 1005.4
15 21.08 С 1 20 км в посл. час ливневой дождь 10/6 1080 м
[Cb calv Ac As]
+19.8 +17.8 88 +24 +24 комфорт 1020.4 1005.7 +23.2 0.0
18 21.08 штиль 0 800 м туман {ливн. осадки} ?/? +15.9 +15.9 100 +16 +16 1020.7 1005.8
21 21.08 штиль 0 6000 м дымка {туман} 8/8 400 м
[Sc]
+15.1 +15.0 99 +15 +15 1020.7 1005.8
00 22.08 штиль 0 1500 м дымка {туман} 8/8 360 м
[Sc]
+13.9 +13.9 100 +13 +13 1020.8 1005.8
03 22.08 штиль 0 800 м туман ?/? +14.8 +14.8 100 +14 +14 1021.1 1006.2 +12.6 3
06 22.08 штиль 0 1200 м в посл. час туман 10/10 150 м
[St]
+15.6 +15.4 99 +15 +15 1020.9 1006.0
09 22.08 В 1 20 км 10/3 300 м
[Sc Ac trans Cs]
+18.9 +16.2 84 +21 +25 комфорт 1019.8 1005.1
12 22.08 В 1 20 км 9/1 600 м
[Sc Ac lent Ci fib]
+21.0 +15.7 72 +26 +28 душно 1017.8 1003.2
15 22.08 Ю 1 20 км 8/0
[Ac lent Ci fib]
+20.7 +16.2 75 +25 +25 комфорт 1015.2 1000.6 +22.1
18 22.08 Ю 2 30 км 10/3 1000 м
[Cb calv Ac As]
+17.6 +14.5 82 +18 +18 1012.9 998.1
21 22.08 Ю 2 30 км 10/10 720 м
[Sc]
+18.4 +15.1 81 +19 +19 1011.0 996.3
00 23.08 З 4-11
{11}
30 км 10/10 800 м
[Cb calv]
+15.7 +13.0 84 +15 +15 1012.5 997.6
03 23.08 З 5
{11}
20 км 10/10 420 м
[Cb calv]
+14.1 +12.3 89 +12 +12 1014.4 999.4 +14.1
06 23.08 З 3 20 км 10/10 800 м
[Cb calv]
+14.2 +10.6 79 +13 +13 1016.1 1001.1
09 23.08 З 6-12
{12}
20 км 8/8 720 м
[Cb calv]
+16.0 +11.0 72 +15 +15 1016.3 1001.4
12 23.08 З 4
{12}
20 км 10/10 720 м
[Cb calv]
+15.8 +11.5 76 +15 +15 1018.2 1003.3
15 23.08 З 2
{10}
20 км 8/8 870 м
[Cb calv]
+16.2 +10.7 70 +16 +16 1019.4 1004.5 +16.7
18 23.08 З 1 30 км 3/0
[Ac trans Ci fib]
+12.5 +11.3 92 +12 +12 1020.4 1005.3
21 23.08 З 1 21 км 8/0
[Ac trans Ci fib]
+11.6 +10.6 94 +11 +11 1020.2 1005.1
00 24.08 штиль 0 30 км 9/0
[Ac trans Cs]
+9.9 +9.7 99 +9 +9 1020.7 1005.5

 

Местоположение метеостанции Койгородок (Коми, Россия): широта 60.45 долгота 50.97 высота над уровнем моря 125 м.

В архиве по умолчанию представлена погода в Койгородке за последнюю неделю. Архивные данные за месяц целиком и за предыдущие месяцы, начиная с января 2011 года, Вы можете получить, выбрав интересующий диапазон дат из раскрывающегося списка и нажав кнопку "Ввод!".


*Определитесь, кто Вы:
робот инопланетянин человек

Внимание! Время в таблицах - всемирное. Для получения местного времени необходимо прибавить поправку, которая равна 3 ч.

Смотрите также архив погоды в соседних городах и на ближайших метеорологических станциях:

Погода в Объячеве (Коми, Россия) (73 км)
Погода в Пустоши (Коми, Россия) (83 км)
Погода в Усть-Черной (Пермский край, Россия) (91 км)
Погода в Нагорске (Кировская область, Россия) (126 км)
Погода в Сыктывкаре (Коми, Россия) (137 км)
Погода в Кирсе (Кировская область, Россия) (142 км)
Погода в Опарино (Кировская область, Россия) (163 км)
Погода в Вилегодском (Архангельская область, Россия) (179 км)
Погода в Белой Холунице (Кировская область, Россия) (180 км)
Погода в Лальске (Кировская область, Россия) (186 км)

Пояснения к столбцам:

Ветер - указаны скорость ветра в м/с - средняя за 10 мин, порывы в срок и между сроками (в фигурных скобках) и направление, откуда дует ветер: С - северный, СВ - северо-восточный, В - восточный, ЮВ - юго-восточный, Ю - южный, ЮЗ - юго-западный, З - западный, СЗ - северо-западный.
Видимость - горизонтальная дальность видимости в метрах или километрах. При видимости от 1 до 10 км при отсутствии осадков обычно наблюдается дымка, при ухудшении видимости до 1 км и менее - туман. В сухую погоду видимость может ухудшаться дымом, пылью или мглою.
Явления - указаны атмосферные явления, наблюдавшиеся в срок или в последний час перед сроком; фигурными скобками обозначены явления, наблюдавшиеся между сроками (за 1-3 часа до срока); квадратными скобками обозначены град или гололедные отложения с указанием их диаметра в мм.
Облачность - указаны через наклонную черту общая и нижняя облачность в баллах и высота нижней границы облаков в метрах; квадратными скобками обозначены формы облаков: Ci - перистые, Cs - перисто-слоистые, Cc - перисто-кучевые, Ac - высококучевые, As - высокослоистые, Sc - слоисто-кучевые, Ns - слоисто-дождевые, Cu - кучевые, Cb - кучево-дождевые. Подробнее классификацию облаков см. в Атласе облаков (PDF).
T - Температура воздуха - температура, измеренная на высоте 2 м над землей.
Td - Температура точки росы - температура, при понижении до которой содержащийся в воздухе водяной пар достигнет насыщения.
f - Относительная влажность воздуха - влажноcть воздуха, измеренная на высоте 2 м над землей.
Te - Эффективная температура - температура, которую ощущает одетый по сезону человек в тени. Характеристика душности погоды. При расчете учитывается влияние влажности воздуха и скорости ветра на теплоощущения человека.
Tes - Эффективная температура на солнце - температура, которую ощущает человек, с поправкой на солнечный нагрев. Характеристика знойности погоды. Зависит от высоты солнца над горизонтом, облачности и скорости ветра. Ночью, в пасмурную погоду, а также при ветре 12 м/с и более поправка равна нулю.
P - Атмосферное давление - приведенное к уровню моря атмосферное давление.
Po - Атмосферное давление - измеренное на уровне метеостанции атмосферное давление.
Tmin - Минимальная температура - минимум температуры воздуха на высоте 2 м над землей.
Tmax - Максимальная температура - максимум температуры воздуха на высоте 2 м над землей.
R - Количество осадков - Количество выпавших осадков за период времени, мм. При наведении курсора мыши на число - период времени, за который выпало указанное количество осадков.
R24 - Количество осадков - Количество выпавших осадков за 24 часа, мм.
S - Снежный покров - Высота снежного покрова, см. При наведении курсора мыши на число - состояние снежного покрова и степень покрытия местности в баллах.